User: anonymous   Login
Location: Unspecified
(0.0000°N, 0.0000°E)
Time: 23:19:39
(UTC+00:00)
Language:

Explorer 22 - Orbit

View from above orbital plane
View from above orbital plane
View from above satellite
View from above satellite

Ground track
Ground track

The orbit data is extracted from the following two-line orbital elements,

1   899U 64064A   17141.56134314 +.00000078 +00000-0 +61934-4 0  9999
2   899 079.6885 148.8211 0122044 075.5683 285.8975 13.82019217647143
Epoch (UTC): 21 May 2017 13:28:20
Eccentricity: 0.0122044
inclination: 79.6885°
perigee height: 867 km
apogee height: 1046 km
right ascension of ascending node: 148.8211°
argument of perigee: 75.5683°
revolutions per day: 13.82019217
mean anomaly at epoch: 285.8975°
orbit number at epoch: 64714

The dashed part of the orbit path shows where the satellite is in the earth's shadow,  

DLR